* Astronomy

Members Login
Username 
 
Password 
    Remember Me  
Post Info TOPIC: Asteroid 2008 MB5


L

Posts: 131433
Date:
Asteroid 2008 MB5
Permalink  
 


Orbital elements:
2008 MB5 Earth MOID = 0.1351 AU
Epoch 2011 Feb. 8.0 TT = JDT 2455600.5 MPC
M 126.67763 (2000.0) P Q
n 0.57776925 Peri. 278.54703 +0.77467029 -0.54818669
a 1.4276873 Node 115.27518 +0.62351583 +0.74525831
e 0.3638499 Incl. 20.40265 -0.10542271 +0.37958057
P 1.71 H 19.2 G 0.15 U 2

MPEC 2011 - E20


__________________
Page 1 of 1  sorted by
 
Quick Reply

Please log in to post quick replies.



Create your own FREE Forum
Report Abuse
Powered by ActiveBoard